{"data":{"norad_id":64450,"epoch":"2026-09-20T00:36:26.013312Z","epoch_age_seconds":172640,"freshness":"FRESH","line1":"1 64450U 25130N   26263.02530108  .00012099  00000+0  36866-3 0  9990","line2":"2 64450  53.1559 261.8288 0001803  61.5639 298.5545 15.34398181 71689","mean_motion":15.34398181,"eccentricity":0.0001803,"inclination_deg":53.1559,"raan_deg":261.8288,"arg_perigee_deg":61.5639,"mean_anomaly_deg":298.5545,"bstar":0.00036866,"rev_number":7168,"period_min":93.847869336076,"perigee_km":461.47524219369,"apogee_km":463.94205113388,"semimajor_km":6840.8456466638,"source":"CELESTRAK","updated_at":"2026-09-21T09:00:35.354523Z"}}